sat.trackr.live / text

‹ back to catalog

2026-052A

NORAD 68198 · 2026-052A

PAYLOAD ACTIVE UNKNOWN

§ Identity

Operator
Country
PRC
Launch date
2026-03-16
Launch site
JSC
Launch vehicle
Mass (kg)
RCS (m²)

External: N2YO · Heavens-Above · Gunter

§ Orbital elements

Epoch: 2026-09-19T10:36:22.917888Z

Period
95.24 min
Inclination
97.5248°
Eccentricity
0.0012508
Mean motion
15.11897227 rev/d
Perigee alt
521.8 km
Apogee alt
539.1 km
Semi-major
6,908.6 km
B*
2.1606e-4
RAAN
335.8045°
Arg perigee
350.2020°
Mean anomaly
9.8965°
Rev number
2,828

§ Raw data

2026-052A1 68198U 26052A   26262.44193192  .00003640  00000+0  21606-3 0  99982 68198  97.5248 335.8045 0012508 350.2020   9.8965 15.11897227 28285

JSON: /api/v1/satellites/68198 · /tle

For live sub-satellite position, see the globe view (requires WebGL).

§ Visibility from observer

Set your observer location to see the next 7 days of passes ≥ 10°. The values pass through the URL so the page stays shareable.

No JS? Fill the form by hand. The geolocation button needs JavaScript.